Location: Burgberg
(50.1428°N, 11.0671°E)
Time: 19:46:32
(UTC+00:00)

STARLINK-27 - Pass Details

Date: 26 January 2020
Orbit: 528 x 531 km, 53.0° (Epoch: 16 February)

Event Time Altitude Azimuth Distance (km) Brightness Sun altitude
Exits shadow 03:35:07 20° 83° (E) 1,275 6.1 -32.4°
Drops below altitude 10° 03:36:29 10° 74° (ENE) 1,772 7.1 -32.1°
Enters shadow 04:35:30 -65° 250° (WSW) 12,091 10.4 -22.7°
Maximum altitude 05:11:39 68° 346° (NNW) 572 3.5 -16.9°
